Location: Grust
(42.8833°N, 0.0333°W)
Time: 19:44:14
(UTC+00:00)

Cosmos 1709 Rocket - Pass Details

Date: 25 October 2020
Orbit: 949 x 1001 km, 82.9° (Epoch: 23 November)

Event Time Altitude Azimuth Distance (km) Brightness Sun altitude
Rises 18:42:00 0° 358° (N) 3,723 7.1 -19.0°
Reaches altitude 10° 18:44:44 10° 6° (N) 2,775 6.3 -19.5°
Maximum altitude 18:50:40 40° 75° (ENE) 1,447 4.4 -20.6°
Enters shadow 18:51:45 37° 98° (E) 1,509 4.4 -20.8°
